GW1682 Weather Reports


time (UTC)temp
C
wind
direction
speed
KPH
gust
KPH
rain 1hr
cm
rain 24hr
cm
rain mn
cm
humidity
%
barometer
mb
20260509234757 18 159 0.0 0.0 0.00 0.00 0.00 66 1014.0
20260509231752 18 166 0.0 0.0 0.00 0.00 0.00 65 1014.1
20260509230250 18 152 0.0 0.0 0.00 0.00 0.00 64 1014.2
20260509221751 18 0 0.0 3.2 0.00 0.00 0.00 67 1014.4
20260509220250 18 159 0.0 3.2 0.00 0.00 0.00 66 1014.5
20260509214756 18 164 0.0 0.0 0.00 0.00 0.00 64 1014.5
20260509214649 19 164 0.0 0.0 0.00 0.00 0.00 64 1014.4
20260509213136 18 164 0.0 0.0 0.00 0.00 0.00 65 1014.4
20260509211651 19 175 0.0 0.0 0.00 0.00 0.00 65 1014.4
20260509210134 18 175 0.0 3.2 0.00 0.00 0.00 65 1014.3
20260509203133 18 41 0.0 3.2 0.00 0.00 0.00 65 1014.3
20260509201633 18 0 0.0 1.6 0.00 0.00 0.00 66 1014.2
20260509200133 19 165 1.6 4.8 0.00 0.00 0.00 65 1014.0
20260509194635 19 0 0.0 0.0 0.00 0.00 0.00 65 1014.1
20260509193135 19 0 0.0 0.0 0.00 0.00 0.00 65 1014.1
20260509191633 19 303 0.0 0.0 0.00 0.00 0.00 65 1013.9
20260509190134 19 288 0.0 0.0 0.00 0.00 0.00 65 1014.0
20260509184634 20 240 0.0 0.0 0.00 0.00 0.00 64 1014.0
20260509183137 20 262 0.0 0.0 0.00 0.00 0.00 64 1014.0
20260509181635 20 264 0.0 4.8 0.00 0.00 0.00 63 1013.8
20260509180137 20 258 0.0 3.2 0.00 0.00 0.00 62 1013.5
20260509174635 20 257 1.6 4.8 0.00 0.00 0.00 61 1013.3
20260509173135 21 264 0.0 4.8 0.00 0.00 0.00 59 1013.2
20260509171636 21 268 1.6 4.8 0.00 0.00 0.00 56 1013.1
20260509170148 22 250 1.6 6.4 0.00 0.00 0.00 54 1012.9
20260509164637 22 305 1.6 6.4 0.00 0.00 0.00 52 1012.8
20260509161625 22 168 1.6 14.5 0.00 0.00 0.00 48 1012.6
20260509160125 23 128 1.6 14.5 0.00 0.00 0.00 47 1012.6
20260509154622 23 137 1.6 11.3 0.00 0.00 0.00 46 1012.5
20260509153126 23 241 3.2 16.1 0.00 0.00 0.00 44 1012.5
20260509151619 23 230 4.8 19.3 0.00 0.00 0.00 43 1012.5
20260509143111 24 199 4.8 14.5 0.00 0.00 0.00 38 1012.6
20260509141611 25 223 8.0 19.3 0.00 0.00 0.00 37 1012.6
20260509140111 25 293 6.4 19.3 0.00 0.00 0.00 35 1012.7
20260509133107 25 230 6.4 20.9 0.00 0.00 0.00 34 1012.8
20260509131609 25 206 6.4 24.1 0.00 0.00 0.00 33 1012.9
20260509124604 24 175 9.7 22.5 0.00 0.00 0.00 35 1013.2
20260509123107 25 227 8.0 20.9 0.00 0.00 0.00 37 1013.4
20260509121613 25 164 6.4 27.4 0.00 0.00 0.00 37 1013.5
20260509114603 24 142 6.4 22.5 0.00 0.00 0.00 39 1013.5
20260509113102 24 149 6.4 25.7 0.00 0.00 0.00 40 1013.7
20260509104602 24 134 6.4 22.5 0.00 0.00 0.00 43 1013.8
20260509103103 23 217 6.4 20.9 0.00 0.00 0.00 43 1013.9
20260509100109 23 152 4.8 17.7 0.00 0.00 0.00 44 1014.2
20260509094603 24 231 3.2 17.7 0.00 0.00 0.00 39 1014.4
20260509093102 24 203 4.8 16.1 0.00 0.00 0.00 36 1014.6
20260509091602 24 212 6.4 14.5 0.00 0.00 0.00 35 1014.4
20260509084603 23 252 4.8 14.5 0.00 0.00 0.00 42 1014.6
20260509083103 23 247 3.2 9.7 0.00 0.00 0.00 40 1014.7
20260509081604 23 266 4.8 11.3 0.00 0.00 0.00 47 1014.6
20260509080116 23 255 1.6 9.7 0.00 0.00 0.00 47 1014.5
20260509074601 23 241 1.6 8.0 0.00 0.00 0.00 48 1014.6
20260509073102 22 220 1.6 8.0 0.00 0.00 0.00 49 1014.5
20260509071603 22 255 1.6 4.8 0.00 0.00 0.00 52 1014.6
20260509064608 21 252 1.6 6.4 0.00 0.00 0.00 55 1014.6
20260509063103 21 274 1.6 3.2 0.00 0.00 0.00 56 1014.5
20260509061602 20 262 1.6 4.8 0.00 0.00 0.00 59 1014.5
20260509060118 20 268 0.0 3.2 0.00 0.00 0.00 64 1014.7
20260509053056 18 172 0.0 3.2 0.00 0.00 0.00 64 1014.6
20260509051556 18 164 0.0 3.2 0.00 0.00 0.00 65 1014.9
20260509050054 17 140 0.0 3.2 0.00 0.00 0.00 66 1014.9
20260509044549 17 0 0.0 1.6 0.00 0.00 0.00 65 1015.0
20260509043052 17 106 0.0 3.2 0.00 0.00 0.00 65 1014.9
20260509041549 17 106 0.0 3.2 0.00 0.00 0.00 63 1014.9
20260509040047 17 162 0.0 3.2 0.00 0.00 0.00 59 1014.8
20260509034548 18 162 0.0 3.2 0.00 0.00 0.00 56 1014.5
20260509031545 18 155 0.0 3.2 0.00 0.00 0.00 55 1014.6
20260509030045 18 157 3.2 4.8 0.00 0.00 0.00 54 1014.5
20260509024545 18 157 1.6 1.6 0.00 0.00 0.00 59 1014.5
20260509021540 17 149 0.0 4.8 0.00 0.00 0.00 63 1014.4
20260509020041 18 326 1.6 8.0 0.00 0.00 0.00 58 1014.2
20260509014539 18 157 0.0 4.8 0.00 0.00 0.00 56 1014.6
20260509013036 18 161 1.6 3.2 0.00 0.00 0.00 60 1014.7
20260509010034 18 161 0.0 3.2 0.00 0.00 0.00 63 1015.3
20260509004533 18 151 1.6 4.8 0.00 0.00 0.00 63 1015.6
20260509003038 17 178 0.0 3.2 0.00 0.00 0.00 67 1015.7